COSMOS 2491 DEB, 47111

Orbit data source: Space-Track

COSMOS 2491 DEB, 47111 is space debris in LEO originally from a launch on Wed, 25 Dec 2013 UTC launched from the Plesetsk Missile And Space Complex (PKMTR). Debris objects in space refer to the collection of defunct objects orbiting the Earth. Examples of debris include non-operational satellites, rocket bodies, and fragments generated from explosions, collisions, or faulty payload assembly.

Loading next visibility...
Identifier
47111, 2013-076AG
Orbit
LEO
Last TLE update
19 hours ago
Origin
Manufacturer
TsNIIKhM
Mission
Spacecraft
Bus & Motor
Unknown
Mass
Unknown
Launch date (UTC)
2013-12-25 (12 years ago)
Launch vehicle
Unknown
Launch site
Plesetsk Missile And Space Complex (PKMTR)
Object type
Payload
Rocket body
Debris
Shape & HBR
Unknown
Radar Cross Section
Small (<0.1 m²)

Expand to show TLE details & history

TLE from 19 hours ago
0 COSMOS 2491 DEB
1 47111U 13076AG  25199.70643257  .00003397  00000-0  19841-1 0  9997
2 47111  82.4479 355.2349 0103453 224.0060 135.2758 12.57288793 97314
Epoch: 2025-07-18T16:57Z
TLE epoch observation values (Epoch: 2025-07-18T16:57:15.774Z)
Latitude
-0.00005°
Longitude
164.16513°
Altitude
1,494.717 km
Speed
7.09 km/s
True Right ascension
23h 40m 56s
True Declination
0° 00' 00"
Sunlit
Object was in daylight at epoch
Visualization orbit readout
Latitude
59.18961°
Longitude
176.42573°
Altitude
1,521.014 km
Speed
7.075 km/s
Apparent Right ascension
15h 49m 00s
Apparent Declination
66° 20' 36"
Sunlit
Object is in daylight
Visualization observer readout
Local Sidereal Time
01:12:18
Azimuth
344.306° N
Elevation
20.436°
Doppler factor
1
Orbital elements
Apogee altitude
1,512.28 km
Perigee altitude
1,350.695 km
Semi-major axis
7,809.625 km
Eccentricity
0.01035
Inclination
82.4479°
RAAN
355.2349°
Arg. of periapsis
224.006°
True anomaly
136.10239°
Mean anomaly
135.2758°
Eccentric anomaly
135.68986°
Mean motion
3.14484 °/min
Orbital period
114.47 mins
BSTAR
0.019841
Loading maneuver chart data...
Loading SW <> Apogee altitude chart data...
Loading historical data...
Loading historical data...
Loading historical data...
Loading historical data...
Loading historical data...
Loading historical data...
Loading historical data...
|